Regional Weather Roundup
Issued by NWS

Home | Current Version | Previous Version | Graphics & Text | Print | Product List | Glossary On
Versions: 1 2 3 4 5 6 7 8 9 10 11 12 13 14 15 16 17 18 19 20 21 22 23 24 25 26 27 28 29 30 31 32 33 34 35 36 37 38 39 40 41 42 43 44 45 46 47 48 49 50
000
ASUS45 KTFX 291110
RWRMT
MONTANA REGIONAL WEATHER ROUNDUP
NATIONAL WEATHER SERVICE GREAT FALLS MT
500 AM MDT MON AUG 29 2016

NOTE: "FAIR" INDICATES FEW OR NO CLOUDS BELOW 12000 FEET WITH NO
SIGNIFICANT WEATHER AND/OR OBSTRUCTIONS TO VISIBILITY.

MTZ001>007-043-291200-
WEST OF THE DIVIDE

CITY           SKY/WX    TMP DP  RH WIND       PRES   REMARKS
KALISPELL      CLEAR     45  42  89 N7        30.18S
MISSOULA       CLEAR     50  37  61 CALM      30.22R
BUTTE          CLEAR     43  31  62 SE3       30.34S
MULLAN PASS    CLEAR     58  32  37 S5        30.28F
DEER LODGE       N/A     45  34  65 CALM      30.31S
EUREKA           N/A     48  37  66 CALM      30.18S
HAMILTON         N/A     52  39  62 CALM      30.22S
LIBBY            N/A     45  37  76 CALM      30.19S
RONAN            N/A     45  39  79 CALM      30.21R
$$

MTZ008-052>055-291200-
SOUTHWEST MONTANA

CITY           SKY/WX    TMP DP  RH WIND       PRES   REMARKS
BOZEMAN        CLEAR     45  40  82 SE5       30.29S
DILLON         CLEAR     47  33  58 SW7       30.30S
W YELLOWSTONE  CLOUDY    36  27  69 CALM      30.42R
ENNIS          PTCLDY    48  32  53 CALM      30.37R
THREE FORKS      N/A     43  23  45 CALM      30.24S
TWIN BRIDGES     N/A     48  29  48 NE2       30.25S
$$

MTZ009-010-012-014-046-048-049-054-291200-
EAST SLOPES AND CENTRAL MONTANA

CITY           SKY/WX    TMP DP  RH WIND       PRES   REMARKS
CUT BANK       PTCLDY    47  41  80 S6        30.24S
GREAT FALLS    CLEAR     47  42  83 CALM      30.23S
MALMSTROM AFB  CLEAR     51  45  80 NW6       30.23S
HELENA         CLEAR     52  38  58 SW3       30.25S
CHOTEAU          N/A     48  43  81 SW5       30.25S
$$

MTZ011-013-016-021-045-047-050-051-291200-
NORTH CENTRAL MONTANA

CITY           SKY/WX    TMP DP  RH WIND       PRES   REMARKS
HAVRE          CLOUDY    54  45  71 E10       30.23S
LEWISTOWN      CLEAR     53  45  74 E5        30.27F
N BAR RANCH      N/A     50  43  76 CALM      30.34R
CHINOOK          N/A     52  46  82 E8        30.26S
$$

MTZ017>020-022>027-061-062-291200-
NORTHEAST MONTANA

CITY           SKY/WX    TMP DP  RH WIND       PRES   REMARKS
GLASGOW        MOCLDY    53  44  71 VRB7      30.26R
JORDAN           N/A     57  47  69 E5        30.26R
SIDNEY         CLEAR     54  46  74 N7        30.27R
WOLF POINT     CLOUDY    51  44  77 N5        30.28R
POPLAR           N/A     48  45  87 NE6       30.28S
$$

MTZ028>42-056>058-291200-
SOUTHCENTRAL AND SOUTHEAST MONTANA

CITY           SKY/WX    TMP DP  RH WIND       PRES   REMARKS
BAKER          PTCLDY    61  48  62 E5        30.24R
BILLINGS       CLEAR     61  46  57 N9        30.25S
LIVINGSTON     CLOUDY    49  40  71 CALM      30.32R
MILES CITY     MOCLDY    65  47  52 NE16      30.21R
FORSYTH          N/A     64  48  55 N7        30.22R
LAUREL           N/A     60  43  53 NW2       30.23R
ROUNDUP          N/A     57  44  62 N3        30.17R
$$

REGIONAL REPORTS...DAKOTAS

CITY           SKY/WX    TMP DP  RH WIND       PRES   REMARKS
WILLISTON      PTCLDY    53  44  71 N7        30.26R
MINOT          CLEAR     56  49  77 NW9       30.20R
DICKINSON      CLOUDY    61  48  62 N16       30.20R
CROSBY           N/A     43  43 100 NW6       30.29R
WATFORD CITY     N/A     54  46  76 N5        30.27R
BISMARCK       CLEAR     65  54  67 N7        30.15R
GRAND FORKS    CLOUDY    67  63  87 N8        30.06S
FARGO          CLEAR     71  67  87 SE6       30.02R
BUFFALO SD       N/A     64  52  64 NE17      30.13R
RAPID CITY     CLEAR     64  48  56 N20       30.14R
$$

REGIONAL REPORTS...WYOMING/IDAHO/WASHINGTON

CITY           SKY/WX    TMP DP  RH WIND       PRES   REMARKS
GILLETTE       CLEAR     49  42  77 CALM      30.23R
SHERIDAN       PTCLDY    57  44  62 CALM      30.24R
BUFFALO WY     PTCLDY    64  34  32 W9        30.29R
CODY           CLEAR     55  39  54 S5        30.32R
YELLOWSTONE LA   N/A     36  32  85 CALM      30.50S
IDAHO FALLS    CLEAR     46  38  73 NW5       30.25S
SALMON         CLEAR     48  37  66 CALM      30.24S
BOISE          PTCLDY    71  40  32 E10       30.06S
SPOKANE        PTCLDY    60  40  48 NE3       30.10F
$$

REGIONAL REPORTS...ALBERTA

CITY           SKY/WX    TMP DP  RH WIND       PRES   REMARKS
EDMONTON       CLEAR     37  36  93 E3        30.22R
CALGARY        PTCLDY    46  43  87 S12       30.19F
LETHBRIDGE     CLEAR     41  39  93 S9G17     30.21F
MEDICINE HAT   CLEAR     46  43  87 E5        30.23S
$$

REGIONAL REPORTS...SASKATCHEWAN

CITY           SKY/WX    TMP DP  RH WIND       PRES   REMARKS
SWIFT CURRENT  MOCLDY    41  41 100 SW5       30.28R
REGINA         PTCLDY    36  36 100 SW2       30.27R
SASKATOON      CLEAR     37  37 100 W6        30.27R
$$



USA.gov is the U.S. government's official web portal to all federal, state and local government web resources and services.